| time (UTC) | temp F | wind direction | speed MPH | gust MPH | rain 1hr in | rain 24hr in | rain mn in | humidity % | barometer mb |
| 20260507003023 | 77 | 36 | 4.0 | 9.0 | 0.00 | 0.00 | 0.00 | 40 | 1016.6 |
| 20260507001518 | 77 | 37 | 4.0 | 7.0 | 0.00 | 0.00 | 0.00 | 41 | 1016.6 |
| 20260507000033 | 77 | 36 | 5.0 | 8.0 | 0.00 | 0.00 | 0.00 | 40 | 1016.4 |
| 20260506234525 | 77 | 36 | 4.0 | 9.0 | 0.00 | 0.00 | 0.00 | 40 | 1016.5 |
| 20260506233020 | 77 | 38 | 4.0 | 10.0 | 0.00 | 0.00 | 0.00 | 40 | 1016.5 |
| 20260506231532 | 78 | 38 | 5.0 | 9.0 | 0.00 | 0.00 | 0.00 | 39 | 1016.6 |
| 20260506230033 | 78 | 37 | 3.0 | 6.0 | 0.00 | 0.00 | 0.00 | 39 | 1016.6 |
| 20260506224527 | 77 | 36 | 3.0 | 9.0 | 0.00 | 0.00 | 0.00 | 39 | 1016.7 |
| 20260506223016 | 77 | 35 | 3.0 | 11.0 | 0.00 | 0.00 | 0.00 | 38 | 1016.9 |
| 20260506221526 | 77 | 32 | 4.0 | 11.0 | 0.00 | 0.00 | 0.00 | 39 | 1017.2 |
| 20260506220057 | 76 | 35 | 3.0 | 12.0 | 0.00 | 0.00 | 0.00 | 41 | 1017.3 |
| 20260506214552 | 76 | 32 | 5.0 | 9.0 | 0.00 | 0.00 | 0.00 | 42 | 1017.4 |
| 20260506213019 | 75 | 38 | 4.0 | 10.0 | 0.00 | 0.00 | 0.00 | 42 | 1017.7 |
| 20260506211535 | 75 | 34 | 4.0 | 9.0 | 0.00 | 0.00 | 0.00 | 42 | 1017.9 |
| 20260506210017 | 75 | 32 | 2.0 | 9.0 | 0.00 | 0.00 | 0.00 | 41 | 1018.1 |
| 20260506204543 | 74 | 36 | 4.0 | 9.0 | 0.00 | 0.00 | 0.00 | 42 | 1018.2 |
| 20260506203035 | 74 | 37 | 1.0 | 9.0 | 0.00 | 0.00 | 0.00 | 43 | 1018.2 |
| 20260506201521 | 73 | 35 | 2.0 | 11.0 | 0.00 | 0.00 | 0.00 | 44 | 1018.5 |
| 20260506200039 | 72 | 36 | 4.0 | 6.0 | 0.00 | 0.00 | 0.00 | 47 | 1018.7 |
| 20260506194525 | 71 | 36 | 3.0 | 7.0 | 0.00 | 0.00 | 0.00 | 47 | 1018.9 |
| 20260506193019 | 70 | 38 | 3.0 | 8.0 | 0.00 | 0.00 | 0.00 | 46 | 1019.2 |
| 20260506191550 | 71 | 35 | 2.0 | 5.0 | 0.00 | 0.00 | 0.00 | 48 | 1019.2 |
| 20260506190027 | 69 | 34 | 5.0 | 10.0 | 0.00 | 0.00 | 0.00 | 47 | 1019.3 |
| 20260506184523 | 68 | 38 | 2.0 | 9.0 | 0.00 | 0.00 | 0.00 | 50 | 1019.3 |
| 20260506183035 | 68 | 32 | 2.0 | 7.0 | 0.00 | 0.00 | 0.00 | 50 | 1019.6 |
| 20260506181542 | 67 | 32 | 4.0 | 8.0 | 0.00 | 0.00 | 0.00 | 51 | 1019.9 |
| 20260506180033 | 66 | 36 | 4.0 | 8.0 | 0.00 | 0.00 | 0.00 | 51 | 1020.0 |
| 20260506174522 | 65 | 32 | 3.0 | 5.0 | 0.00 | 0.00 | 0.00 | 53 | 1019.8 |
| 20260506173034 | 65 | 32 | 4.0 | 8.0 | 0.00 | 0.00 | 0.00 | 53 | 1019.8 |
| 20260506171523 | 65 | 31 | 5.0 | 10.0 | 0.00 | 0.00 | 0.00 | 53 | 1019.8 |
| 20260506170019 | 63 | 35 | 0.0 | 5.0 | 0.00 | 0.00 | 0.00 | 56 | 1019.9 |
| 20260506164531 | 62 | 34 | 2.0 | 4.0 | 0.00 | 0.00 | 0.00 | 58 | 1020.0 |
| 20260506163025 | 62 | 36 | 2.0 | 7.0 | 0.00 | 0.00 | 0.00 | 59 | 1019.8 |
| 20260506161521 | 60 | 35 | 0.0 | 5.0 | 0.00 | 0.00 | 0.00 | 60 | 1019.8 |
| 20260506160033 | 60 | 35 | 2.0 | 6.0 | 0.00 | 0.00 | 0.00 | 61 | 1019.8 |
| 20260506154519 | 59 | 32 | 1.0 | 5.0 | 0.00 | 0.00 | 0.00 | 64 | 1019.7 |
| 20260506153053 | 58 | 36 | 1.0 | 2.0 | 0.00 | 0.00 | 0.00 | 66 | 1019.8 |
| 20260506151521 | 57 | 34 | 3.0 | 4.0 | 0.00 | 0.00 | 0.00 | 69 | 1019.9 |
| 20260506150019 | 56 | 34 | 0.0 | 0.0 | 0.00 | 0.00 | 0.00 | 74 | 1019.8 |
| 20260506144526 | 54 | 35 | 0.0 | 0.0 | 0.00 | 0.00 | 0.00 | 79 | 1020.1 |
| 20260506143035 | 52 | 38 | 0.0 | 0.0 | 0.00 | 0.00 | 0.00 | 83 | 1019.9 |
| 20260506141526 | 50 | 35 | 0.0 | 0.0 | 0.00 | 0.00 | 0.00 | 85 | 1020.0 |
| 20260506140018 | 49 | 37 | 0.0 | 0.0 | 0.00 | 0.00 | 0.00 | 85 | 1019.8 |
| 20260506134531 | 48 | 38 | 0.0 | 0.0 | 0.00 | 0.00 | 0.00 | 85 | 1019.7 |
| 20260506133023 | 47 | 35 | 0.0 | 0.0 | 0.00 | 0.00 | 0.00 | 85 | 1019.5 |
| 20260506131545 | 47 | 37 | 0.0 | 0.0 | 0.00 | 0.00 | 0.00 | 84 | 1019.2 |
| 20260506130024 | 47 | 32 | 0.0 | 0.0 | 0.00 | 0.10 | 0.00 | 84 | 1019.1 |
| 20260506124535 | 47 | 38 | 0.0 | 0.0 | 0.00 | 0.10 | 0.00 | 83 | 1019.0 |
| 20260506123026 | 47 | 35 | 2.0 | 3.0 | 0.00 | 0.10 | 0.00 | 83 | 1018.9 |
| 20260506121530 | 47 | 38 | 0.0 | 0.0 | 0.00 | 0.10 | 0.00 | 82 | 1018.9 |
| 20260506120023 | 47 | 36 | 0.0 | 0.0 | 0.00 | 0.11 | 0.00 | 82 | 1018.7 |
| 20260506114519 | 47 | 34 | 0.0 | 0.0 | 0.00 | 0.11 | 0.00 | 81 | 1018.7 |
| 20260506113032 | 48 | 37 | 0.0 | 0.0 | 0.00 | 0.11 | 0.00 | 81 | 1018.7 |
| 20260506111526 | 48 | 38 | 0.0 | 0.0 | 0.00 | 0.11 | 0.00 | 81 | 1018.7 |
| 20260506110022 | 48 | 38 | 0.0 | 0.0 | 0.00 | 0.11 | 0.00 | 80 | 1018.6 |
| 20260506104554 | 48 | 38 | 0.0 | 0.0 | 0.00 | 0.11 | 0.00 | 80 | 1018.5 |
| 20260506103030 | 49 | 38 | 0.0 | 0.0 | 0.00 | 0.11 | 0.00 | 79 | 1018.6 |
| 20260506101524 | 49 | 38 | 0.0 | 0.0 | 0.00 | 0.11 | 0.00 | 79 | 1018.6 |
| 20260506100036 | 50 | 38 | 0.0 | 0.0 | 0.00 | 0.12 | 0.00 | 79 | 1018.6 |
| 20260506094526 | 50 | 38 | 0.0 | 0.0 | 0.00 | 0.12 | 0.00 | 79 | 1018.7 |
| 20260506093019 | 51 | 35 | 0.0 | 0.0 | 0.00 | 0.12 | 0.00 | 79 | 1018.7 |
| 20260506091531 | 51 | 38 | 0.0 | 0.0 | 0.00 | 0.12 | 0.00 | 79 | 1018.7 |
| 20260506090048 | 52 | 36 | 0.0 | 0.0 | 0.00 | 0.12 | 0.00 | 78 | 1018.7 |
| 20260506084522 | 52 | 38 | 0.0 | 0.0 | 0.00 | 0.12 | 0.00 | 79 | 1019.0 |
| 20260506083030 | 52 | 38 | 0.0 | 0.0 | 0.00 | 0.12 | 0.00 | 78 | 1018.9 |
| 20260506081524 | 52 | 34 | 0.0 | 0.0 | 0.00 | 0.12 | 0.00 | 78 | 1019.1 |
| 20260506073022 | 52 | 38 | 0.0 | 0.0 | 0.00 | 0.12 | 0.00 | 75 | 1019.2 |
| 20260506071529 | 53 | 32 | 0.0 | 1.0 | 0.00 | 0.12 | 0.00 | 75 | 1019.2 |
| 20260506061553 | 53 | 38 | 0.0 | 0.0 | 0.00 | 0.12 | 0.12 | 73 | 1019.0 |
| 20260506044528 | 56 | 36 | 1.0 | 3.0 | 0.00 | 0.12 | 0.12 | 66 | 1017.9 |
| 20260506043020 | 56 | 38 | 1.0 | 3.0 | 0.00 | 0.12 | 0.12 | 65 | 1018.0 |
| 20260506041556 | 57 | 37 | 0.0 | 4.0 | 0.00 | 0.12 | 0.12 | 63 | 1017.6 |
| 20260506040025 | 57 | 35 | 4.0 | 4.0 | 0.00 | 0.12 | 0.12 | 63 | 1017.2 |
| 20260506034518 | 58 | 38 | 3.0 | 5.0 | 0.00 | 0.12 | 0.12 | 61 | 1017.1 |
| 20260506033028 | 59 | 38 | 3.0 | 7.0 | 0.00 | 0.12 | 0.12 | 59 | 1016.9 |
| 20260506031521 | 60 | 38 | 2.0 | 4.0 | 0.00 | 0.12 | 0.12 | 59 | 1016.7 |
| 20260506030023 | 60 | 38 | 1.0 | 8.0 | 0.00 | 0.12 | 0.12 | 57 | 1016.5 |
| 20260506024532 | 60 | 38 | 3.0 | 7.0 | 0.00 | 0.12 | 0.12 | 56 | 1016.1 |
| 20260506023023 | 60 | 35 | 3.0 | 9.0 | 0.00 | 0.12 | 0.12 | 56 | 1015.9 |
| 20260506021552 | 61 | 36 | 3.0 | 6.0 | 0.00 | 0.12 | 0.12 | 55 | 1015.8 |
| 20260506020045 | 61 | 36 | 6.0 | 10.0 | 0.00 | 0.12 | 0.12 | 54 | 1015.6 |
| 20260506014536 | 62 | 32 | 6.0 | 10.0 | 0.00 | 0.12 | 0.12 | 54 | 1015.5 |
| 20260506013027 | 62 | 35 | 5.0 | 9.0 | 0.00 | 0.12 | 0.12 | 53 | 1015.3 |
| 20260506011517 | 62 | 34 | 4.0 | 11.0 | 0.00 | 0.12 | 0.12 | 53 | 1015.3 |
| 20260506010017 | 62 | 38 | 5.0 | 11.0 | 0.00 | 0.12 | 0.12 | 53 | 1015.3 |
| 20260506004526 | 64 | 37 | 4.0 | 13.0 | 0.00 | 0.12 | 0.12 | 52 | 1015.3 |